OneWeb SL0372

operational
NORAD ID: 49298 Int'l Des: 2021-090 Owner: ONEWEBN Country: UK Constellation: oneweb
LEOCIRCULARPOLARONEWEB_TYPE

OneWeb SL0372について

説明を読み込み中...

リアルタイム位置

3D地球を読み込み中...

次回通過

高度履歴

Altitude vs Time

uPlot chart will show altitude changes over time

軌道要素

1 49298U 21090V 25258.16419456 .00000117 00000-0 25560-3 0 9992
2 49298 87.9267 329.2762 0001805 97.7996 262.3342 13.20771906193534
Epoch: Sep 15, 2025 • Age: 13 hours

現在のステータス

高度 1186.9 km
速度 7.26 km/s
衛星直下点 -10.02°S, 84.65°E
打ち上げ日 Oct 14, 2021
運用期間 3.9 years
タイプ internet

技術仕様

分類 Payload
質量 148.00 kg
乾燥質量 140.00 kg
総質量 148.00 kg
長さ 1.30 m
直径 1.00 m
スパン 5.00 m
形状 Trapezoid+2 pan
製造者 ONEWUS
バスタイプ ARROW
フェーズステータス In Orbit
所有者/国 ONEWEBN/UK

大規模コンステレーション

Loading constellations...